Home   Weather   San Francisco   Past weeks

Flag for USA Past Weather in San Francisco, California, USA — Yesterday and Last 2 Weeks

Now
56 °F

Passing clouds.


Feels Like: 54 °F
Forecast: 57 / 68 °F
Wind: 7 mph from Northwest

Location: San Francisco International Airport

Current Time: Jul 20, 2017 at 5:53:53 am

Latest Report: Jul 20, 2017 at 4:56 am


Visibility: 10 mi

Pressure: 30.02 "Hg

Humidity: 84%

Dew Point: 51 °F

Location of San FranciscoLocation

Past Weather in San Francisco — Graph

°F

San Francisco Temperature Yesterday

Maximum temperature yesterday: 70 °F (at 12:56 pm)
Minimum temperature yesterday: 54 °F (at 5:56 am)
Average temperature yesterday: 61 °F

High & Low Weather Summary for the Past Weeks

 TemperatureHumidityPressure
High84 °F (Jul 16, 11:56 am)90% (Jul 5, 10:56 pm)30.09 "Hg (Jul 5, 10:56 pm)
Low53 °F (Jul 9, 5:24 am)29% (Jul 16, 3:56 pm)29.82 "Hg (Jul 16, 6:56 pm)
Average62 °F68%29.96 "Hg
* Reported Jul 5 3:56 am — Jul 20 3:56 am, San Francisco. Weather by CustomWeather, © 2017

Note: Actual official high and low records may vary slightly from our data, if they occured in-between our weather recording intervals... More about our weather records

Advertising

San Francisco Weather History for the Previous 24 Hours

Scroll right to see more
 ConditionsComfort  
Time TempWeatherWind HumidityBarometerVisibility
3:56 am
Thu, Jul 20
57 °FPassing clouds.13 mph81%30.01 "Hg10 mi
2:56 am57 °FPassing clouds.12 mph81%30.02 "Hg10 mi
1:56 am57 °FPassing clouds.12 mph81%30.01 "Hg10 mi
12:56 am58 °FPassing clouds.20 mph78%30.02 "Hg10 mi
11:56 pm
Wed, Jul 19
58 °FPassing clouds.15 mph78%30.02 "Hg10 mi
10:56 pm58 °FPassing clouds.16 mph78%30.02 "Hg10 mi
9:56 pm59 °FPassing clouds.15 mph75%30.01 "Hg10 mi
8:56 pm60 °FPassing clouds.20 mph72%29.99 "Hg10 mi
7:56 pm61 °FPassing clouds.17 mph67%29.98 "Hg10 mi
6:56 pm63 °FPassing clouds.18 mph63%29.97 "Hg10 mi
5:56 pm64 °FPassing clouds.18 mph61%29.98 "Hg10 mi
4:56 pm66 °FPassing clouds.26 mph56%29.99 "Hg10 mi
3:56 pm68 °FPassing clouds.24 mph51%30.00 "Hg10 mi
2:56 pm70 °FPassing clouds.21 mph47%30.01 "Hg10 mi
1:56 pm68 °FSunny.22 mph53%30.02 "Hg10 mi
12:56 pm70 °FSunny.20 mph49%30.03 "Hg10 mi
11:56 am67 °FPassing clouds.16 mph55%30.03 "Hg10 mi
10:56 am65 °FPassing clouds.16 mph59%30.03 "Hg10 mi
9:56 am63 °FPassing clouds.15 mph63%30.03 "Hg10 mi
8:56 am61 °FPassing clouds.9 mph67%30.03 "Hg10 mi
7:56 am58 °FPassing clouds.7 mph78%30.03 "Hg10 mi
6:56 am56 °FPassing clouds.6 mph84%30.01 "Hg10 mi
5:56 am54 °FPassing clouds.8 mph86%30.00 "Hg10 mi
Weather by CustomWeather, © 2017

See weather overviewHow to use our weather pages